When you browse on this site, cookies collect data to enhance your experience and personalize the content and advertising you see.
Visit our Privacy Policy to learn more. By continuing to use the site, you agree to this use of cookies and data.
  • In United Kingdom
  • List of Countries
  • For 7 days
  • Water Temperature
  • Satellite Maps
  • Weather Map
  • Weather Widgets
  • user-avatar
    Login

    Hourly Weather Loos

    Today, 16 December, Sunday

    Time Temperature Precipitation Wind Pressure Humidity
    00:00 -1°C° 0.7 mm 6 mps 754 mmHg 92%
    01:00 -1°C° 0 mm 6 mps 754 mmHg 93%
    02:00 0°C° 0 mm 5 mps 754 mmHg 94%
    03:00 0°C° 0 mm 4 mps 754 mmHg 95%
    04:00 0°C° 0 mm 4 mps 754 mmHg 95%
    05:00 +1°C° 0 mm 4 mps 754 mmHg 95%
    06:00 +2°C° 0 mm 3 mps 754 mmHg 95%
    07:00 +2°C° 0.2 mm 3 mps 754 mmHg 95%
    08:00 +2°C° 0.2 mm 3 mps 755 mmHg 95%
    09:00 +2°C° 0.2 mm 3 mps 755 mmHg 95%
    10:00 +3°C° 0.1 mm 3 mps 755 mmHg 95%
    11:00 +4°C° 0.1 mm 4 mps 755 mmHg 95%
    12:00 +4°C° 0.1 mm 4 mps 755 mmHg 95%
    13:00 +4°C° 0 mm 4 mps 755 mmHg 95%
    14:00 +4°C° 0 mm 3 mps 756 mmHg 95%
    15:00 +4°C° 0 mm 3 mps 756 mmHg 95%
    16:00 +3°C° 0 mm 3 mps 756 mmHg 95%
    17:00 +1°C° 0 mm 4 mps 756 mmHg 96%
    18:00 +1°C° 0 mm 4 mps 756 mmHg 96%
    19:00 +1°C° 0.1 mm 4 mps 756 mmHg 96%
    20:00 +1°C° 0.1 mm 4 mps 756 mmHg 96%
    21:00 +1°C° 0.1 mm 4 mps 756 mmHg 96%
    22:00 +2°C° 0.6 mm 3 mps 756 mmHg 96%
    23:00 +3°C° 0.6 mm 3 mps 756 mmHg 96%

    Tomorrow, 17 December, Monday

    Time Temperature Precipitation Wind Pressure Humidity
    00:00 +3°C° 0.6 mm 3 mps 756 mmHg 97%
    01:00 +4°C° 1.1 mm 2 mps 756 mmHg 97%
    02:00 +4°C° 1.1 mm 2 mps 757 mmHg 97%
    03:00 +4°C° 1.1 mm 2 mps 757 mmHg 97%
    04:00 +4°C° 0.1 mm 2 mps 758 mmHg 96%
    05:00 +4°C° 0.1 mm 2 mps 758 mmHg 96%
    06:00 +3°C° 0.1 mm 3 mps 759 mmHg 95%
    07:00 +3°C° 0 mm 3 mps 760 mmHg 94%
    08:00 +4°C° 0 mm 3 mps 761 mmHg 93%
    09:00 +4°C° 0 mm 3 mps 762 mmHg 92%
    10:00 +5°C° 0 mm 3 mps 762 mmHg 89%
    11:00 +7°C° 0 mm 3 mps 763 mmHg 86%
    12:00 +8°C° 0 mm 3 mps 763 mmHg 83%
    13:00 +7°C° 0 mm 3 mps 763 mmHg 85%
    14:00 +7°C° 0 mm 3 mps 764 mmHg 87%
    15:00 +7°C° 0 mm 3 mps 764 mmHg 90%
    16:00 +5°C° 0 mm 3 mps 765 mmHg 91%
    17:00 +5°C° 0 mm 3 mps 765 mmHg 92%
    18:00 +4°C° 0 mm 3 mps 765 mmHg 93%
    19:00 +4°C° 0 mm 4 mps 765 mmHg 93%
    20:00 +4°C° 0 mm 4 mps 766 mmHg 92%
    21:00 +4°C° 0 mm 4 mps 766 mmHg 92%
    22:00 +4°C° 0 mm 4 mps 766 mmHg 92%
    23:00 +3°C° 0 mm 5 mps 766 mmHg 93%

    Day after tomorrow, 18 December, Tuesday

    Time Temperature Precipitation Wind Pressure Humidity
    00:00 +3°C° 0 mm 5 mps 766 mmHg 93%
    01:00 +3°C° 0 mm 5 mps 765 mmHg 93%
    02:00 +3°C° 0 mm 5 mps 765 mmHg 94%
    03:00 +3°C° 0 mm 5 mps 765 mmHg 94%
    04:00 +3°C° 0 mm 5 mps 765 mmHg 94%
    05:00 +3°C° 0 mm 5 mps 764 mmHg 94%
    06:00 +3°C° 0 mm 6 mps 764 mmHg 94%
    07:00 +3°C° 0 mm 6 mps 763 mmHg 92%
    08:00 +3°C° 0 mm 6 mps 763 mmHg 90%
    09:00 +3°C° 0 mm 7 mps 763 mmHg 88%
    10:00 +4°C° 0 mm 7 mps 762 mmHg 81%
    11:00 +5°C° 0 mm 8 mps 761 mmHg 74%
    12:00 +6°C° 0 mm 8 mps 760 mmHg 67%
    13:00 +5°C° 0 mm 8 mps 760 mmHg 66%
    14:00 +5°C° 0 mm 8 mps 759 mmHg 66%
    15:00 +5°C° 0 mm 8 mps 758 mmHg 65%
    16:00 +5°C° 0 mm 8 mps 757 mmHg 66%
    17:00 +5°C° 0 mm 8 mps 757 mmHg 66%
    18:00 +4°C° 0 mm 8 mps 757 mmHg 67%
    19:00 +4°C° 0 mm 8 mps 756 mmHg 68%
    20:00 +5°C° 0 mm 8 mps 756 mmHg 69%
    21:00 +5°C° 0 mm 8 mps 756 mmHg 70%
    22:00 +5°C° 0.1 mm 7 mps 756 mmHg 73%
    23:00 +5°C° 0.1 mm 7 mps 756 mmHg 77%

    19 December, Wednesday

    Time Temperature Precipitation Wind Pressure Humidity
    00:00 +5°C° 0.1 mm 7 mps 756 mmHg 80%
    01:00 +5°C° 0.3 mm 6 mps 756 mmHg 84%
    02:00 +7°C° 0.3 mm 6 mps 756 mmHg 87%
    03:00 +7°C° 0.3 mm 5 mps 756 mmHg 91%
    04:00 +6°C° 0 mm 5 mps 757 mmHg 92%
    05:00 +6°C° 0 mm 4 mps 757 mmHg 93%
    06:00 +6°C° 0 mm 4 mps 757 mmHg 94%
    07:00 +6°C° 0 mm 4 mps 758 mmHg 94%
    08:00 +6°C° 0 mm 4 mps 758 mmHg 94%
    09:00 +6°C° 0 mm 4 mps 758 mmHg 95%
    10:00 +6°C° 0 mm 4 mps 758 mmHg 90%
    11:00 +7°C° 0 mm 4 mps 758 mmHg 86%
    12:00 +8°C° 0 mm 4 mps 758 mmHg 82%
    13:00 +7°C° 0 mm 4 mps 758 mmHg 84%
    14:00 +7°C° 0 mm 4 mps 758 mmHg 85%
    15:00 +8°C° 0 mm 3 mps 758 mmHg 86%
    16:00 +8°C° 0.1 mm 3 mps 758 mmHg 88%
    17:00 +6°C° 0.1 mm 4 mps 758 mmHg 90%
    18:00 +6°C° 0.1 mm 4 mps 758 mmHg 92%
    19:00 +5°C° 0.1 mm 3 mps 758 mmHg 93%
    20:00 +5°C° 0.1 mm 3 mps 759 mmHg 93%
    21:00 +5°C° 0.1 mm 3 mps 759 mmHg 94%
    22:00 +4°C° 0 mm 3 mps 759 mmHg 93%
    23:00 +4°C° 0 mm 3 mps 759 mmHg 93%

    20 December, Thursday

    Time Temperature Precipitation Wind Pressure Humidity
    00:00 +4°C° 0 mm 3 mps 759 mmHg 93%
    01:00 +4°C° 0 mm 3 mps 759 mmHg 93%
    02:00 +3°C° 0 mm 3 mps 759 mmHg 93%
    03:00 +3°C° 0 mm 3 mps 760 mmHg 93%
    04:00 +3°C° 0 mm 3 mps 760 mmHg 92%
    05:00 +3°C° 0 mm 4 mps 760 mmHg 92%
    06:00 +3°C° 0 mm 4 mps 760 mmHg 92%
    07:00 +3°C° 0.1 mm 4 mps 761 mmHg 92%
    08:00 +3°C° 0.1 mm 4 mps 761 mmHg 91%
    09:00 +3°C° 0.1 mm 4 mps 762 mmHg 90%
    10:00 +3°C° 0.1 mm 5 mps 762 mmHg 88%
    11:00 +5°C° 0.1 mm 5 mps 762 mmHg 85%
    12:00 +6°C° 0.1 mm 5 mps 762 mmHg 83%
    13:00 +6°C° 0 mm 4 mps 762 mmHg 84%
    14:00 +6°C° 0 mm 4 mps 762 mmHg 85%
    15:00 +6°C° 0 mm 4 mps 763 mmHg 87%
    16:00 +5°C° 0 mm 4 mps 763 mmHg 88%
    17:00 +5°C° 0 mm 4 mps 763 mmHg 90%
    18:00 +4°C° 0 mm 4 mps 763 mmHg 92%
    19:00 +4°C° 0 mm 4 mps 764 mmHg 92%
    20:00 +3°C° 0 mm 5 mps 764 mmHg 92%
    21:00 +3°C° 0 mm 5 mps 764 mmHg 92%
    22:00 +3°C° 0 mm 5 mps 763 mmHg 91%
    23:00 +3°C° 0 mm 5 mps 763 mmHg 91%

    21 December, Friday

    Time Temperature Precipitation Wind Pressure Humidity
    00:00 +3°C° 0 mm 6 mps 763 mmHg 90%
    01:00 +3°C° 0.1 mm 7 mps 762 mmHg 90%
    02:00 +4°C° 0.1 mm 7 mps 761 mmHg 89%
    03:00 +4°C° 0.1 mm 8 mps 760 mmHg 88%
    04:00 +5°C° 1.5 mm 9 mps 760 mmHg 88%
    05:00 +6°C° 1.5 mm 9 mps 759 mmHg 89%
    06:00 +6°C° 1.5 mm 9 mps 758 mmHg 89%
    07:00 +7°C° 1.5 mm 9 mps 758 mmHg 89%
    08:00 +8°C° 1.5 mm 9 mps 757 mmHg 90%
    09:00 +8°C° 1.5 mm 9 mps 757 mmHg 90%
    10:00 +10°C° 2.2 mm 9 mps 757 mmHg 90%
    11:00 +10°C° 2.2 mm 9 mps 756 mmHg 90%
    12:00 +11°C° 2.2 mm 8 mps 756 mmHg 91%
    13:00 +11°C° 1 mm 8 mps 756 mmHg 91%
    14:00 +11°C° 1 mm 7 mps 756 mmHg 91%
    15:00 +11°C° 1 mm 7 mps 756 mmHg 91%
    16:00 +11°C° 0.4 mm 6 mps 756 mmHg 92%
    17:00 +11°C° 0.4 mm 6 mps 756 mmHg 92%
    18:00 +12°C° 0.4 mm 5 mps 755 mmHg 93%
    19:00 +11°C° 1.5 mm 7 mps 755 mmHg 90%
    20:00 +12°C° 1.5 mm 9 mps 755 mmHg 87%
    21:00 +12°C° 1.5 mm 10 mps 755 mmHg 84%
    22:00 +12°C° 0.1 mm 10 mps 755 mmHg 82%
    23:00 +11°C° 0.1 mm 10 mps 755 mmHg 80%
    Show more